TimeMDT,TemperatureF,Dew PointF,Humidity,Sea Level PressureIn,VisibilityMPH,Wind Direction,Wind SpeedMPH,Gust SpeedMPH,PrecipitationIn,Events,Conditions,WindDirDegrees,DateUTC
12:53 AM,14.0,8.1,77,30.35,10.0,WSW,3.5,-,N/A,,Clear,240,2013-03-12 06:53:00
1:53 AM,12.0,7.0,80,30.35,10.0,Calm,Calm,-,N/A,,Clear,0,2013-03-12 07:53:00
2:53 AM,10.0,6.1,84,30.35,-9999.0,Calm,Calm,-,N/A,,Clear,0,2013-03-12 08:53:00
3:53 AM,12.0,6.1,77,30.34,10.0,Calm,Calm,-,N/A,,Clear,0,2013-03-12 09:53:00
4:53 AM,14.0,9.0,80,30.33,-9999.0,NW,3.5,-,N/A,,Mostly Cloudy,310,2013-03-12 10:53:00
5:53 AM,16.0,10.9,81,30.33,10.0,Calm,Calm,-,N/A,,Overcast,0,2013-03-12 11:53:00
6:53 AM,17.1,12.0,81,30.33,10.0,Calm,Calm,-,N/A,,Overcast,0,2013-03-12 12:53:00
7:53 AM,19.0,12.9,77,30.34,10.0,Calm,Calm,-,N/A,,Overcast,0,2013-03-12 13:53:00
8:53 AM,21.9,16.0,78,30.32,10.0,Calm,Calm,-,N/A,,Overcast,0,2013-03-12 14:53:00
9:53 AM,28.0,17.1,63,30.30,10.0,NNW,11.5,-,N/A,,Overcast,340,2013-03-12 15:53:00
10:53 AM,32.0,16.0,52,30.27,10.0,NNW,12.7,-,N/A,,Overcast,330,2013-03-12 16:53:00
11:53 AM,42.1,12.9,31,30.22,10.0,West,15.0,24.2,N/A,,Overcast,260,2013-03-12 17:53:00
12:53 PM,50.0,15.1,25,30.18,10.0,WSW,19.6,29.9,N/A,,Overcast,240,2013-03-12 18:53:00
1:53 PM,46.9,16.0,29,30.17,10.0,SW,23.0,29.9,N/A,,Scattered Clouds,230,2013-03-12 19:53:00
2:53 PM,50.0,19.0,29,30.15,10.0,WSW,19.6,31.1,N/A,,Overcast,240,2013-03-12 20:53:00
3:53 PM,50.0,21.0,32,30.12,10.0,WSW,23.0,-,N/A,,Overcast,240,2013-03-12 21:53:00
4:53 PM,50.0,21.0,32,30.11,10.0,SW,21.9,33.4,N/A,,Overcast,230,2013-03-12 22:53:00
5:53 PM,51.1,23.0,33,30.09,10.0,SW,28.8,35.7,N/A,,Scattered Clouds,230,2013-03-12 23:53:00
6:53 PM,48.9,23.0,36,30.08,10.0,WSW,26.5,38.0,N/A,,Mostly Cloudy,240,2013-03-13 00:53:00
7:53 PM,48.0,23.0,37,30.08,10.0,WSW,27.6,33.4,N/A,,Mostly Cloudy,240,2013-03-13 01:53:00
8:53 PM,46.0,23.0,40,30.07,10.0,SW,34.5,46.0,N/A,,Clear,220,2013-03-13 02:53:00
9:53 PM,46.0,23.0,40,30.06,10.0,WSW,26.5,49.5,N/A,,Clear,240,2013-03-13 03:53:00
10:53 PM,46.0,23.0,40,30.08,10.0,SW,28.8,38.0,N/A,,Clear,220,2013-03-13 04:53:00
11:53 PM,46.9,24.1,41,30.04,10.0,SW,28.8,46.0,N/A,,Clear,220,2013-03-13 05:53:00